Grafton, ND

12:22 PM CST on November 18, 2017 (GMT -0600)
Grafton Municipal

Weather History for KGAF - January, 2013

Change the Weather History Date:

Saturday, January 12, 2013

  Actual Average Record
Temperature  
Mean Temperature 0 °F -  
Max Temperature 6 °F 12 °F 41 °F (1986)
Min Temperature -5 °F -5 °F -30 °F (1974)
Degree Days  
Heating Degree Days 64    
Moisture  
Dew Point -5 °F    
Average Humidity 81    
Maximum Humidity 92    
Minimum Humidity 66    
Precipitation  
Precipitation 0.00 in - - ()
Sea Level Pressure  
Sea Level Pressure 29.95 in    
Wind  
Wind Speed - (North)    
Max Wind Speed -    
Max Gust Speed -    
Visibility 4 miles    
Events Rain , Snow    
Averages and records for this station are not official NWS values.
T = Trace of Precipitation, MM = Missing Value Source: NWS Daily Summary

Daily Weather History Graph

Daily Weather History Graph

Search for Another Location

Airport or City:

Trip Planner

Search our weather history database for the weather conditions in past years. The results will help you decide how hot, cold, wet, or windy it might be!

Date:

Astronomy

Jan. 12, 2013 Rise Set
Actual Time 8:17 AM CST 4:58 PM CST
Civil Twilight 7:41 AM CST 5:34 PM CST
Nautical Twilight 7:02 AM CST 6:13 PM CST
Astronomical Twilight 6:25 AM CST 6:51 PM CST
Moon 8:28 AM CST (1/12) 6:39 PM CST (1/12)
Length of Visible Light 9h 52m
Length of Day
8h 41m
New Moon, 1% of the Moon is Illuminated
Jan 12
New Moon
Jan 18
First Quarter
Jan 26
Full
Feb 3
Last Quarter
Feb 10
New

Hourly Weather History & Observations

Time (CST) Temp. Dew Point Humidity Pressure Visibility Wind Dir Wind Speed Gust Speed Precip Events Conditions
12:15 AM 6.8 °F 5.0 °F 92% 29.58 in 0.5 mi North - - N/A Snow Snow
12:35 AM 6.8 °F 3.2 °F 85% 29.59 in 0.8 mi North - - N/A Snow Light Snow
12:55 AM 5.0 °F 1.4 °F 85% 29.60 in 0.5 mi North - - N/A Snow Snow
1:15 AM 5.0 °F 1.4 °F 85% 29.61 in 0.5 mi North - - N/A Snow Snow
1:35 AM 5.0 °F 1.4 °F 85% 29.62 in 0.5 mi North - - N/A Snow Snow
1:55 AM 5.0 °F -0.4 °F 78% 29.63 in 0.5 mi North - - N/A Snow Snow
2:15 AM 3.2 °F -0.4 °F 85% 29.64 in 0.5 mi North - - N/A Snow Snow
2:35 AM 3.2 °F -0.4 °F 85% 29.66 in 0.5 mi North - - N/A Rain Light Freezing Rain
2:55 AM 1.4 °F -0.4 °F 92% 29.67 in 0.5 mi North - - N/A Snow Snow
3:35 AM 1.4 °F -0.4 °F 92% 29.69 in 0.8 mi North - - N/A Snow Light Snow
3:55 AM 1.4 °F -0.4 °F 92% 29.69 in 0.5 mi North - - N/A Snow Snow
4:15 AM 1.4 °F -0.4 °F 92% 29.70 in 0.8 mi North - - N/A Snow Light Snow
4:35 AM 1.4 °F -2.2 °F 85% 29.72 in 1.2 mi North - - N/A Snow Light Snow
4:55 AM -0.4 °F -2.2 °F 92% 29.73 in 1.2 mi North - - N/A Snow Light Snow
5:15 AM -0.4 °F -2.2 °F 92% 29.75 in 1.0 mi North - - N/A Snow Light Snow
5:35 AM -0.4 °F -2.2 °F 92% 29.76 in 1.0 mi North - - N/A Snow Light Snow
5:55 AM -0.4 °F -2.2 °F 92% 29.77 in 0.8 mi North - - N/A Snow Light Snow
6:15 AM -0.4 °F -4.0 °F 85% 29.78 in 0.8 mi North - - N/A Snow Light Snow
6:35 AM -0.4 °F -4.0 °F 85% 29.80 in 0.5 mi North - - N/A Snow Snow
6:55 AM -0.4 °F -4.0 °F 85% 29.82 in 0.8 mi North - - N/A Snow Light Snow
7:15 AM -0.4 °F -4.0 °F 85% 29.83 in 0.8 mi North - - N/A Snow Light Snow
7:35 AM -0.4 °F -4.0 °F 85% 29.84 in 0.8 mi North - - N/A Snow Light Snow
7:55 AM -0.4 °F -5.8 °F 78% 29.86 in 0.8 mi North - - N/A Snow Light Snow
8:15 AM -0.4 °F -4.0 °F 85% 29.87 in 0.2 mi North - - N/A Snow Heavy Snow
8:35 AM -0.4 °F -4.0 °F 85% 29.88 in 0.2 mi North - - N/A Snow Heavy Snow
8:55 AM -0.4 °F -4.0 °F 85% 29.90 in 0.5 mi North - - N/A Rain Light Freezing Rain
9:15 AM -0.4 °F -4.0 °F 85% 29.91 in 0.5 mi North - - N/A Snow Snow
9:35 AM -0.4 °F -4.0 °F 85% 29.92 in 0.8 mi North - - N/A Snow Light Snow
9:55 AM -0.4 °F -4.0 °F 85% 29.92 in 1.0 mi North - - N/A Snow Light Snow
10:15 AM -0.4 °F -4.0 °F 85% 29.93 in 1.0 mi North - - N/A Rain Light Freezing Rain
10:35 AM -0.4 °F -4.0 °F 85% 29.94 in 0.5 mi North - - N/A Rain Light Freezing Rain
10:55 AM -0.4 °F -4.0 °F 85% 29.95 in 0.8 mi North - - N/A Snow Light Snow
11:15 AM -0.4 °F -4.0 °F 85% 29.97 in 0.5 mi North - - N/A Snow Snow
11:55 AM -0.4 °F -5.8 °F 78% 29.98 in 0.8 mi North - - N/A Rain Light Freezing Rain
12:15 PM -2.2 °F -7.6 °F 78% 29.99 in 2.0 mi North - - N/A Rain Light Freezing Rain
12:35 PM -2.2 °F -7.6 °F 78% 29.99 in 3.0 mi North - - N/A Rain Light Freezing Rain
12:55 PM -2.2 °F -7.6 °F 78% 30.00 in 2.5 mi North - - N/A   Haze
1:15 PM -2.2 °F -7.6 °F 78% 30.00 in 2.5 mi North - - N/A   Haze
1:35 PM -2.2 °F -7.6 °F 78% 30.02 in 3.0 mi North - - N/A   Haze
1:55 PM -2.2 °F -7.6 °F 78% 30.03 in 3.0 mi North - - N/A   Haze
2:15 PM -2.2 °F -7.6 °F 78% 30.04 in 3.0 mi North - - N/A   Haze
2:35 PM -2.2 °F -7.6 °F 78% 30.06 in 4.0 mi North - - N/A   Haze
2:55 PM -2.2 °F -7.6 °F 78% 30.06 in 4.0 mi North - - N/A   Haze
3:15 PM -2.2 °F -7.6 °F 78% 30.07 in 3.0 mi North - - N/A   Haze
3:35 PM -0.4 °F -5.8 °F 78% 30.08 in 4.0 mi North - - N/A   Haze
3:55 PM -0.4 °F -5.8 °F 78% 30.08 in 9.0 mi North - - N/A   Overcast
4:15 PM -0.4 °F -5.8 °F 78% 30.09 in 10.0 mi North - - N/A   Mostly Cloudy
4:35 PM -0.4 °F -5.8 °F 78% 30.09 in 10.0 mi North - - N/A   Scattered Clouds
4:55 PM -0.4 °F -5.8 °F 78% 30.09 in 10.0 mi North - - N/A   Clear
5:15 PM -0.4 °F -5.8 °F 78% 30.10 in 10.0 mi North - - N/A   Clear
5:35 PM -0.4 °F -5.8 °F 78% 30.11 in 10.0 mi North - - N/A   Clear
5:55 PM -0.4 °F -5.8 °F 78% 30.11 in 10.0 mi North - - N/A   Clear
6:15 PM -0.4 °F -7.6 °F 72% 30.12 in 10.0 mi North - - N/A   Clear
6:35 PM -0.4 °F -7.6 °F 72% 30.13 in 10.0 mi North - - N/A   Clear
6:55 PM -0.4 °F -7.6 °F 72% 30.13 in 10.0 mi North - - N/A   Clear
7:15 PM -0.4 °F -9.4 °F 66% 30.14 in 10.0 mi North - - N/A   Clear
7:35 PM -2.2 °F -9.4 °F 71% 30.14 in 10.0 mi North - - N/A   Clear
7:55 PM -2.2 °F -9.4 °F 71% 30.14 in 10.0 mi North - - N/A   Clear
8:15 PM -2.2 °F -9.4 °F 71% 30.15 in 10.0 mi North - - N/A   Clear
8:35 PM -4.0 °F -9.4 °F 78% 30.15 in 10.0 mi North - - N/A   Clear
8:55 PM -4.0 °F -9.4 °F 78% 30.15 in 10.0 mi North - - N/A   Clear
9:15 PM -4.0 °F -9.4 °F 78% 30.15 in 10.0 mi North - - N/A   Clear
9:35 PM -4.0 °F -11.2 °F 71% 30.16 in 10.0 mi North - - N/A   Clear
9:55 PM -4.0 °F -11.2 °F 71% 30.16 in 10.0 mi North - - N/A   Clear
10:15 PM -4.0 °F -11.2 °F 71% 30.16 in 10.0 mi North - - N/A   Clear
10:35 PM -4.0 °F -11.2 °F 71% 30.17 in 10.0 mi North - - N/A   Clear
10:55 PM -5.8 °F -11.2 °F 77% 30.18 in 10.0 mi North - - N/A   Clear
11:15 PM -4.0 °F -11.2 °F 71% 30.18 in 10.0 mi North - - N/A   Clear
11:35 PM -5.8 °F -11.2 °F 77% 30.18 in 10.0 mi North - - N/A   Clear
11:55 PM -5.8 °F -11.2 °F 77% 30.18 in 10.0 mi North - - N/A   Clear